GW0143 Weather Reports


time (UTC)temp
C
wind
direction
speed
KPH
gust
KPH
rain 1hr
cm
rain 24hr
cm
rain mn
cm
humidity
%
barometer
mb
20260504050532 8 109 3.2 4.8 0.00 0.00 0.00 48 1016.8
20260504045532 8 181 4.8 6.4 0.00 0.00 0.00 47 1016.9
20260504044532 8 191 3.2 4.8 0.00 0.00 0.00 44 1017.0
20260504043532 8 325 1.6 4.8 0.00 0.00 0.00 40 1017.0
20260504042517 8 103 3.2 4.8 0.00 0.00 0.00 51 1017.0
20260504041518 8 129 4.8 6.4 0.00 0.00 0.00 47 1017.0
20260504040538 8 150 6.4 6.4 0.00 0.00 0.00 49 1017.0
20260504035518 9 128 3.2 3.2 0.00 0.00 0.00 42 1017.0
20260504034539 9 103 3.2 4.8 0.00 0.00 0.00 44 1017.0
20260504033559 9 156 3.2 4.8 0.00 0.00 0.00 43 1017.0
20260504032518 10 169 3.2 4.8 0.00 0.00 0.00 40 1016.9
20260504031519 10 64 3.2 4.8 0.00 0.00 0.00 39 1016.9
20260504030539 10 22 1.6 3.2 0.00 0.00 0.00 37 1016.7
20260504025522 10 62 4.8 8.0 0.00 0.00 0.00 40 1016.6
20260504024519 10 285 3.2 4.8 0.00 0.00 0.00 39 1016.5
20260504023520 10 310 1.6 4.8 0.00 0.00 0.00 37 1016.4
20260504022520 11 283 1.6 4.8 0.00 0.00 0.00 35 1016.3
20260504021517 11 259 6.4 9.7 0.00 0.00 0.00 33 1016.3
20260504020517 11 268 8.0 14.5 0.00 0.00 0.00 32 1016.2
20260504015523 12 243 6.4 12.9 0.00 0.00 0.00 31 1016.1
20260504014521 12 234 11.3 16.1 0.00 0.00 0.00 28 1016.1
20260504013518 12 269 12.9 20.9 0.00 0.00 0.00 28 1016.1
20260504012518 13 322 9.7 14.5 0.00 0.00 0.00 28 1016.0
20260504011518 13 307 12.9 17.7 0.00 0.00 0.00 28 1015.8
20260504010518 13 301 9.7 17.7 0.00 0.00 0.00 26 1015.8
20260504005519 13 323 6.4 14.5 0.00 0.00 0.00 23 1015.7
20260504004519 14 316 6.4 11.3 0.00 0.00 0.00 23 1015.7
20260504003519 14 299 11.3 14.5 0.00 0.00 0.00 23 1015.7
20260504002520 14 300 6.4 9.7 0.00 0.00 0.00 23 1015.7
20260504001519 14 306 8.0 14.5 0.00 0.00 0.00 23 1015.8
20260504000600 14 300 12.9 19.3 0.00 0.00 0.00 23 1015.8
20260503235520 15 289 11.3 17.7 0.00 0.00 0.00 22 1015.8
20260503234523 15 309 3.2 6.4 0.00 0.00 0.00 21 1015.8
20260503233520 15 300 9.7 14.5 0.00 0.00 0.00 21 1015.9
20260503232541 15 288 14.5 24.1 0.00 0.00 0.00 21 1015.8
20260503231520 15 281 6.4 12.9 0.00 0.00 0.00 21 1015.9
20260503230520 16 286 11.3 24.1 0.00 0.00 0.00 20 1015.9
20260503225521 15 9 6.4 9.7 0.00 0.00 0.00 20 1016.1
20260503224521 15 10 6.4 12.9 0.00 0.00 0.00 20 1016.1
20260503223520 15 22 6.4 12.9 0.00 0.00 0.00 20 1016.2
20260503222521 15 332 4.8 9.7 0.00 0.00 0.00 21 1016.3
20260503221521 15 2 6.4 14.5 0.00 0.00 0.00 20 1016.4
20260503220542 15 49 8.0 14.5 0.00 0.00 0.00 19 1016.6
20260503215522 15 1 6.4 12.9 0.00 0.00 0.00 19 1016.7
20260503214522 15 324 6.4 16.1 0.00 0.00 0.00 20 1016.8
20260503213539 15 311 8.0 19.3 0.00 0.00 0.00 20 1017.0
20260503212522 15 18 9.7 16.1 0.00 0.00 0.00 18 1017.1
20260503211519 16 295 8.0 17.7 0.00 0.00 0.00 17 1017.3
20260503210516 16 20 11.3 19.3 0.00 0.00 0.00 17 1017.5
20260503205522 16 344 6.4 12.9 0.00 0.00 0.00 18 1017.7
20260503204523 15 11 3.2 11.3 0.00 0.00 0.00 18 1017.9
20260503203519 16 357 12.9 22.5 0.00 0.00 0.00 18 1018.1
20260503202523 15 0 9.7 16.1 0.00 0.00 0.00 19 1018.3
20260503201523 15 342 6.4 14.5 0.00 0.00 0.00 20 1018.5
20260503200517 15 9 11.3 17.7 0.00 0.00 0.00 21 1018.6
20260503195517 15 314 9.7 20.9 0.00 0.00 0.00 20 1018.8
20260503194517 15 320 8.0 14.5 0.00 0.00 0.00 18 1018.8
20260503193518 15 355 8.0 14.5 0.00 0.00 0.00 19 1018.9
20260503192524 15 316 8.0 16.1 0.00 0.00 0.00 18 1019.1
20260503191539 15 298 6.4 14.5 0.00 0.00 0.00 18 1019.2
20260503190518 14 205 9.7 14.5 0.00 0.00 0.00 20 1019.4
20260503185518 14 272 14.5 25.7 0.00 0.00 0.00 20 1019.5
20260503184518 13 289 11.3 22.5 0.00 0.00 0.00 21 1019.8
20260503183520 13 297 8.0 14.5 0.00 0.00 0.00 22 1020.0
20260503182519 13 278 9.7 20.9 0.00 0.00 0.00 23 1020.1
20260503181539 13 41 4.8 11.3 0.00 0.00 0.00 23 1020.4
20260503180519 13 32 8.0 14.5 0.00 0.00 0.00 23 1020.5
20260503175519 13 341 6.4 12.9 0.00 0.00 0.00 24 1020.6
20260503174528 12 327 3.2 8.0 0.00 0.00 0.00 24 1020.7
20260503173520 12 298 6.4 12.9 0.00 0.00 0.00 24 1020.8
20260503172528 12 335 3.2 6.4 0.00 0.00 0.00 24 1021.0
20260503171529 12 10 3.2 6.4 0.00 0.00 0.00 25 1021.0
20260503170520 12 52 4.8 11.3 0.00 0.00 0.00 25 1021.0
20260503150522 10 148 6.4 11.3 0.00 0.00 0.00 34 1022.0
20260503130517 4 86 6.4 9.7 0.00 0.00 0.00 48 1021.9
20260503110519 2 138 9.7 14.5 0.00 0.00 0.00 50 1021.5
20260503081518 3 149 12.9 16.1 0.00 0.00 0.00 49 1021.7
20260503080518 3 147 11.3 14.5 0.00 0.00 0.00 49 1021.7
20260503072519 3 147 9.7 12.9 0.00 0.00 0.00 49 1022.0
20260503071519 3 149 9.7 12.9 0.00 0.00 0.00 53 1022.1
20260503070539 3 161 9.7 12.9 0.00 0.00 0.00 50 1022.1